Location: Ch?enovice
(49.7164°N, 15.2160°E)
Time: 18:17:27
(UTC+00:00)

Cosmos 1953 - Pass Details

Date: 23 May 2024
Orbit: 510 x 530 km, 82.5° (Epoch: 12 June)

Event Time Altitude Azimuth Distance (km) Brightness Sun altitude
Rises 00:58:07 0° 342° (NNW) 2,686 6.5 -14.6°
Reaches altitude 10° 01:00:25 10° 332° (NNW) 1,787 5.4 -14.4°
Maximum altitude 01:03:56 32° 269° (W) 916 3.2 -14.1°
Enters shadow 01:05:28 24° 227° (SW) 1,129 3.3 -14.0°
